Location: Beddau
(51.5575°N, 3.3561°W)
Time: 17:56:31
(UTC+00:00)

PSLV R/B - Pass Details

Date: 03 March 2021
Orbit: 566 x 599 km, 98.2° (Epoch: 13 April)

Event Time Altitude Azimuth Distance (km) Brightness Sun altitude
Rises 18:32:52 0° 20° (NNE) 2,812 7.2 -6.3°
Reaches altitude 10° 18:35:09 10° 28° (NNE) 1,902 6.3 -6.6°
Maximum altitude 18:39:02 39° 98° (E) 865 4.4 -7.2°
Drops below altitude 10° 18:42:51 10° 169° (SSE) 1,872 6.4 -7.8°
Sets 18:45:05 0° 177° (S) 2,760 7.4 -8.2°
